Hourly Data Report for October 04, 2017

All times are specified in Local Standard Time (LST). Add 1 hour to adjust for Daylight Saving Time where and when it is observed.

BELLA COOLA AIRPORT
BRITISH COLUMBIA

52°23'19.000" N
126°35'13.000" W
36.90 m
1060844
71533
VBD

Download Data

Hourly Data (October 2017)
Hourly Data Report for October 4, 2017
Temp Definition
°C
Dew Point Temp Definition
°C
Rel Hum Definition
%
Wind Dir Definition
10's deg

Wind Spd Definition
km/h
Visibility Definition
km
Stn Press Definition
kPa
Hmdx Definition


Wind Chill Definition


Weather Definition


TIME
00:00 2.2 1.8 97   0   102.20     LegendNANA
01:00 2.0 1.6 97 10 2   102.21     LegendNANA
02:00 1.1 0.8 97   0   102.21     LegendNANA
03:00 0.8 0.5 98   0   102.19     LegendNANA
04:00 0.6 0.2 98 11 3   102.16     LegendNANA
05:00 0.3 0.0 98 12 1   102.13     LegendNANA
06:00 -0.2 -0.4 98 0 1   102.10   -1 LegendNANA
07:00 -0.5 -0.8 98 10 2   102.09   -1 LegendNANA
08:00 0.0 -0.2 98 11 1   102.08   0 LegendNANA
09:00 0.7 0.4 98 0 1   102.04     LegendNANA
10:00 6.9 5.1 88 19 3   101.98     LegendNANA
11:00 11.3 1.5 51 18 2   101.91     LegendNANA
12:00 13.4 1.2 43 22 4   101.83     LegendNANA
13:00 15.3 1.9 40 36 3   101.74     LegendNANA
14:00 16.1 1.5 37 26 7   101.67     LegendNANA
15:00 15.5 2.8 42 25 12   101.63     LegendNANA
16:00 15.0 1.6 40 24 12   101.61     LegendNANA
17:00 13.1 5.0 58 18 6   101.63     LegendNANA
18:00 8.1 5.2 82 12 1   101.68     LegendNANA
19:00 5.7 4.4 91   0   101.74     LegendNANA
20:00 4.9 4.0 94   0   101.77     LegendNANA
21:00 3.7 3.0 95 7 1   101.81     LegendNANA
22:00 3.1 2.5 96 0 1   101.82     LegendNANA
23:00 2.3 1.8 97   0   101.86     LegendNANA

Notes on Data Quality.

Legend

  • E = Estimated
  • M = Missing
  • NA = Not Available
  • ‡ = Partner data that is not subject to review by the National Climate Archives
Date modified: